Home   Weather   Vaduz   Past weeks

Flag for Liechtenstein Past Weather in Vaduz, Liechtenstein — Yesterday and Last 2 Weeks

Now
56 °F

Rain. Low clouds.


Feels Like: 56 °F
Forecast: 50 / 58 °F
Wind: 2 mph from North

Location: Vaduz

Current Time: Jul 25, 2017 at 3:02:26 am

Latest Report: Jul 25, 2017 at 2:00 am


Visibility: 5 mi

Pressure: 29.92 "Hg

Humidity: 95%

Dew Point: 54 °F

Location of VaduzLocation

Past Weather in Vaduz — Graph

°F

Vaduz Temperature Yesterday

Maximum temperature yesterday: 65 °F (at 12:00 am)
Minimum temperature yesterday: 56 °F (at 10:00 pm)
Average temperature yesterday: 61 °F

High & Low Weather Summary for the Past Weeks

 TemperatureHumidityPressure
High88 °F (Jul 19, 5:00 pm)96% (Jul 10, 11:00 pm)30.30 "Hg (Jul 10, 11:00 pm)
Low54 °F (Jul 16, 4:00 am)36% (Jul 19, 2:00 pm)29.76 "Hg (Jul 21, 6:00 pm)
Average68 °F72%30.01 "Hg
* Reported Jul 10 1:00 am — Jul 25 1:00 am, Vaduz. Weather by CustomWeather, © 2017

Note: Actual official high and low records may vary slightly from our data, if they occured in-between our weather recording intervals... More about our weather records

Advertising

Vaduz Weather History for the Previous 24 Hours

Scroll right to see more
 ConditionsComfort  
Time TempWeatherWind HumidityBarometerVisibility
1:00 am
Tue, Jul 25
56 °FCool.1 mph94%29.91 "HgN/A
12:00 am56 °FCool.3 mph94%29.93 "HgN/A
11:00 pm
Mon, Jul 24
56 °FLight rain. Overcast.2 mph96%29.92 "Hg5 mi
10:00 pm56 °FCool.5 mph92%29.93 "HgN/A
9:00 pm57 °FCool.3 mph92%29.93 "HgN/A
8:00 pm60 °FRain. Overcast.2 mph75%29.89 "Hg6 mi
7:00 pm62 °FCool.3 mph72%29.89 "HgN/A
6:00 pm63 °FMild.3 mph73%29.86 "HgN/A
5:00 pm64 °FRain. Overcast.3 mph69%29.86 "Hg4 mi
4:00 pm64 °FMild.2 mph62%29.88 "HgN/A
3:00 pm63 °FMild.6 mph65%29.86 "HgN/A
2:00 pm62 °FRain. Overcast.9 mph70%29.84 "Hg2 mi
1:00 pm63 °FMild.1 mph93%29.82 "HgN/A
12:00 pm62 °FCool.1 mph93%29.83 "HgN/A
11:00 am62 °FRain. Overcast.1 mph91%29.83 "Hg2 mi
10:00 am61 °FCool.No wind94%29.83 "HgN/A
9:00 am61 °FCool.1 mph94%29.82 "HgN/A
8:00 am61 °FOvercast.5 mph92%29.84 "Hg4 mi
7:00 am62 °FCool.1 mph90%29.84 "HgN/A
6:00 am61 °FCool.3 mph89%29.85 "HgN/A
5:00 am61 °FOvercast.1 mph93%29.88 "Hg9 mi
4:00 am62 °FCool.2 mph89%29.90 "HgN/A
3:00 am62 °FCool.No wind88%29.93 "HgN/A
Weather by CustomWeather, © 2017

See weather overviewHow to use our weather pages